Lemoore NAS, CA

2:08 AM PDT on April 23, 2017 (GMT -0700)
Lemoore Naval Air Station

Weather History for KNLC - February, 2014

Change the Weather History Date:

Monday, February 24, 2014

  Actual Average Record
Temperature  
Mean Temperature 63 °F -  
Max Temperature 81 °F 59 °F 81 °F (2014)
Min Temperature 45 °F 42 °F 28 °F (2013)
Degree Days  
Heating Degree Days 2    
Growing Degree Days 13 (Base 50)    
Moisture  
Dew Point 36 °F    
Average Humidity 41    
Maximum Humidity 65    
Minimum Humidity 21    
Precipitation  
Precipitation 0.00 in - - ()
Sea Level Pressure  
Sea Level Pressure 29.96 in    
Wind  
Wind Speed 5 mph (NW)    
Max Wind Speed 12 mph    
Max Gust Speed -    
Visibility 10 miles    
Events      
Averages and records for this station are not official NWS values.
T = Trace of Precipitation, MM = Missing Value Source: NWS Daily Summary

Daily Weather History Graph

Daily Weather History Graph

Search for Another Location

Airport or City:

Trip Planner

Search our weather history database for the weather conditions in past years. The results will help you decide how hot, cold, wet, or windy it might be!

Date:

Astronomy

Feb. 24, 2014 Rise Set
Actual Time 6:36 AM PST 5:49 PM PST
Civil Twilight 6:10 AM PST 6:15 PM PST
Nautical Twilight 5:40 AM PST 6:45 PM PST
Astronomical Twilight 5:10 AM PST 7:15 PM PST
Moon 2:34 AM PST (2/24) 1:01 PM PST (2/24)
Length of Visible Light 12h 05m
Length of Day
11h 13m
Waning Crescent, 27% of the Moon is Illuminated
Feb 24
Waning Crescent
Mar 1
New
Mar 8
First Quarter
Mar 16
Full
Mar 23
Last Quarter

Hourly Weather History & Observations

Time (PST) Temp. Windchill Dew Point Humidity Pressure Visibility Wind Dir Wind Speed Gust Speed Precip Events Conditions
12:56 AM 50.0 °F - 30.9 °F 48% 29.99 in - West 10.4 mph - N/A   Clear
1:56 AM 48.0 °F - 30.9 °F 52% 29.99 in - West 8.1 mph - N/A   Clear
2:56 AM 46.0 °F - 33.1 °F 61% 29.98 in - Calm Calm - N/A   Clear
3:56 AM 46.9 °F - 30.9 °F 54% 29.98 in - Calm Calm - N/A   Clear
4:56 AM 46.9 °F - 30.9 °F 54% 29.99 in - Calm Calm - N/A   Clear
5:56 AM 45.0 °F 43.5 °F 34.0 °F 65% 30.00 in - NW 3.5 mph - N/A   Clear
6:56 AM 45.0 °F - 32.0 °F 60% 30.01 in 10.0 mi Calm Calm - N/A   Clear
7:56 AM 52.0 °F - 36.0 °F 54% 30.02 in 10.0 mi Calm Calm - N/A   Partly Cloudy
8:56 AM 60.1 °F - 39.0 °F 46% 30.02 in 10.0 mi NW 3.5 mph - N/A   Partly Cloudy
9:56 AM 66.0 °F - 41.0 °F 40% 30.02 in 10.0 mi North 4.6 mph - N/A   Partly Cloudy
10:56 AM 71.1 °F - 43.0 °F 36% 30.01 in 10.0 mi NNW 5.8 mph - N/A   Partly Cloudy
11:56 AM 73.9 °F - 43.0 °F 33% 29.99 in 10.0 mi North 4.6 mph - N/A   Partly Cloudy
12:56 PM 75.9 °F - 42.1 °F 30% 29.95 in 10.0 mi ESE 5.8 mph - N/A   Partly Cloudy
1:56 PM 78.1 °F - 42.1 °F 28% 29.92 in 10.0 mi NE 5.8 mph - N/A   Partly Cloudy
2:56 PM 80.1 °F - 39.9 °F 24% 29.91 in 10.0 mi North 6.9 mph - N/A   Partly Cloudy
3:56 PM 81.0 °F - 37.9 °F 21% 29.90 in 10.0 mi Calm Calm - N/A   Partly Cloudy
4:56 PM 80.1 °F - 37.0 °F 21% 29.89 in 10.0 mi NE 6.9 mph - N/A   Partly Cloudy
5:56 PM 73.0 °F - 39.0 °F 29% 29.89 in 10.0 mi Calm Calm - N/A   Partly Cloudy
6:56 PM 70.0 °F - 37.9 °F 31% 29.91 in 10.0 mi Calm Calm - N/A   Clear
7:56 PM 68.0 °F - 35.1 °F 30% 29.92 in 10.0 mi West 3.5 mph - N/A   Clear
8:56 PM 60.1 °F - 33.1 °F 36% 29.94 in 10.0 mi WSW 9.2 mph - N/A   Clear
9:56 PM 61.0 °F - 34.0 °F 36% 29.95 in 10.0 mi West 11.5 mph - N/A   Clear
10:56 PM 57.9 °F - 33.1 °F 39% 29.95 in 10.0 mi Calm Calm - N/A   Clear
11:56 PM 55.9 °F - 37.0 °F 49% 29.96 in 10.0 mi Calm Calm - N/A   Clear